Location: Maccacari
(45.1333°N, 11.1333°E)
Time: 19:37:56
(UTC+00:00)

Tiros 1 despin weight - Pass Details

Date: 30 January 2021
Orbit: 593 x 642 km, 48.2° (Epoch: 26 February)

Event Time Altitude Azimuth Distance (km) Brightness Sun altitude
Rises 15:11:10 0° 287° (WNW) 2,889 ? 9.6°
Reaches altitude 10° 15:13:30 10° 289° (WNW) 1,974 ? 9.3°
Maximum altitude 15:18:02 73° 14° (NNE) 638 ? 8.7°
Drops below altitude 10° 15:22:29 10° 100° (E) 1,941 ? 8.0°
Sets 15:24:46 0° 102° (ESE) 2,836 ? 7.7°
